Regional Weather Roundup
Issued by NWS

Home | Current Version | Previous Version | Graphics & Text | Print | Product List | Glossary On
Versions: 1 2 3 4 5 6 7 8 9 10 11 12 13 14 15 16 17 18 19 20 21 22 23 24 25 26 27 28 29 30 31 32 33 34 35 36 37 38 39 40 41 42 43 44 45 46 47 48 49 50
000
ASUS43 KLOT 010558
RWRIL

ILLINOIS REGIONAL WEATHER ROUNDUP
NATIONAL WEATHER SERVICE CHICAGO/ROMEOVILLE IL
1200 AM CST SUN MAR 01 2015

NOTE: "FAIR" INDICATES FEW OR NO CLOUDS BELOW 12,000 FEET WITH NO
SIGNIFICANT WEATHER AND/OR OBSTRUCTIONS TO VISIBILITY.

* THESE STATIONS ARE NOT UNDER NWS QUALITY CONTROL. THEY ALSO MAY NOT
  REPORT WEATHER SUCH AS PRECIPITATION OR FOG.

ILZ001-002-007-009-015-016-024-010700-
NORTHWEST ILLINOIS

CITY           SKY/WX    TMP DP  RH WIND       PRES   REMARKS
MOLINE         PTCLDY     6   3  87 CALM      30.43F FOG
6HR MIN TEMP:   6; 6HR MAX TEMP:  17; 6HR PCP: TRACE;

$$

ILZ003-004-008-010-011-017-018-010700-
NORTH CENTRAL ILLINOIS

CITY           SKY/WX    TMP DP  RH WIND       PRES   REMARKS
ROCKFORD       NOT AVBL
$$

ILZ005-006-012>014-019>023-010700-
NORTHEAST ILLINOIS

CITY           SKY/WX    TMP DP  RH WIND       PRES   REMARKS
CHICAGO-OHARE  LGT SNOW  18  14  84 S6        30.45F FOG     WCI  10
6HR MIN TEMP:  16; 6HR MAX TEMP:  20; 6HR PCP:  0.02;

CHICAGO-MIDWAY NOT AVBL
AURORA         CLOUDY    19  13  77 SE5       30.44F HAZE    WCI  12
6HR MIN TEMP:  16; 6HR MAX TEMP:  20; 6HR PCP: TRACE;

WAUKEGAN       NOT AVBL
DUPAGE AIRPORT CLOUDY    18  13  80 SE6       30.43F WCI  10
6HR MIN TEMP:  16; 6HR MAX TEMP:  20; 6HR PCP: TRACE;

WHEELING       CLOUDY    18  14  84 S5        30.47F FOG     WCI  11
6HR MIN TEMP:  18; 6HR MAX TEMP:  21; 6HR PCP: TRACE;

NORTHERLY ISL    N/A     19  14  81 S5          N/A  WCI  12
$$

LMZ740>746-010700-
SOUTHERN LAKE MICHIGAN

STATION/POSITION SKY/WX   TEMP    WIND        PRES    VSBY  WAVE
                          AIR SEA DIR/SP/G                  HT/PER
                          (F)     (DEG/KT/KT) (MB)    (MI)  (FT/S)
WAUKEGAN HARBOR            19     180/  8/ 18   N/A
HARRISON CRIB              19     170/ 11/ 15   N/A
BURNHAM HARBOR             19     170/  5/ 10   N/A
CALUMET HARBOR             19     140/  4/  6 1030.4F
MICHIGAN CITY              18     120/  6/  8   N/A
$$

ILZ025>027-034>036-040-047-049-050-058-095>099-010700-
WEST-CENTRAL ILLINOIS

CITY           SKY/WX    TMP DP  RH WIND       PRES   REMARKS
QUINCY         LGT SNOW  20  18  92 SE5       30.40F VSB 1   WCI  13
$$

ILZ028>032-037-038-041>044-048-051>054-059>061-010700-
CENTRAL ILLINOIS

CITY           SKY/WX    TMP DP  RH WIND       PRES   REMARKS
PEORIA         NOT AVBL
SPRINGFIELD    LGT SNOW  22  20  92 E3        30.42F FOG
6HR MIN TEMP:  22; 6HR MAX TEMP:  23; 6HR PCP:  0.30;

TAYLORVILLE    NOT AVBL
$$

ILZ033-039-045-046-055>057-062-063-010700-
EAST-CENTRAL ILLINOIS

CITY           SKY/WX    TMP DP  RH WIND       PRES   REMARKS
CHAMPAIGN      LGT SNOW  21  19  92 E6        30.42F VSB 3/4 WCI  13
MATTOON        LGT SNOW  23  21  92 SE6       30.41F FOG     WCI  16
$$

ILZ079-100>102-010700-
SOUTHWEST ILLINOIS

CITY           SKY/WX    TMP DP  RH WIND       PRES   REMARKS
BELLEVILLE     LGT SNOW  25  25 100 E2        30.41F FOG
CAHOKIA*       LGT SNOW  26  25  96 CALM      30.42F VSB 1
$$

ILZ064>066-069>071-074>076-080>082-084>086-088>090-092>094-010700-
SOUTH-CENTRAL ILLINOIS

CITY           SKY/WX    TMP DP  RH WIND       PRES   REMARKS
CARBONDALE     CLOUDY    31  21  66 E3        30.42F
6HR MIN TEMP:  28; 6HR MAX TEMP:  31; 6HR PCP: TRACE;

$$

ILZ067-068-072-073-078-083-087-091-010700-
SOUTHEAST ILLINOIS

CITY           SKY/WX    TMP DP  RH WIND       PRES   REMARKS
$$

ABBREVIATIONS USED IN REMARKS
   TC - TEMPERATURE IN CELSIUS
  WCI - WIND CHILL INDEX
   HX - HEAT INDEX
  VSB - VISIBILITY
$$




USA.gov is the U.S. government's official web portal to all federal, state and local government web resources and services.